OpenBCM V1.13 (Linux)

Packet Radio Mailbox

DB0FHN

[JN59NK Nuernberg]

 Login: GUEST





  
LU9DCE > KEP      30.11.19 20:41l 244 Lines 12081 Bytes #999 (0) @ WW
BID : 4111_LU9DCE
Read: DF7EAV DJ6UX GUEST
Subj: TLE 30 11
Path: DB0FHN<DB0FFL<OE5XBL<OE5XBR<OE1XAB<HG8LXL<XE1FH<GB7YEW<N7HPX<LU9DCE
Sent: 191130/1601Z 4111@LU9DCE.TOR.BA.ARG.SOAM LinBPQ6.0.19

            __    _  _  ___  ____   ___  ____    ____  ____  ____
           (  )  / )( \/ _ \(    \ / __)(  __)  (  _ \(  _ \/ ___)
           / (_/\) \/ (\__  )) D (( (__  ) _)    ) _ ( ) _ (\___ \
           \____/\____/(___/(____/ \___)(____)  (____/(____/(____/
               ESTACION DE PACKET RADIO - BUENOS AIRES (GF05OM)
                   BOLETINES INFORMATIVOS PROGRAMADOS (BIP)
                  SLACKWARE LINUX - HELLOCODELINUX@GMAIL.COM
+----------------------------------------------------------------------------+
OSCAR 7
1  7530U 74089B   19334.50790584 -.00000036  00000-0  57792-4 0  9995
2  7530 101.7700 300.6176 0012454  30.0306  83.7621 12.53641013 61172
OSCAR 11 (UoSAT 2)
1 14781U 84021B   19334.11870608  .00000064  00000-0  13888-4 0  9999
2 14781  97.6003 350.9652 0009553 133.1504 227.0511 14.83124023923131
OSCAR 19 (LUSAT)
1 20442U 90005G   19333.83205377 +.00000003 +00000-0 +17263-4 0  9996
2 20442 098.6673 275.6816 0012362 030.4383 329.7516 14.32939068559820
EYESAT A
1 22825U 93061C   19334.20081286 -.00000019  00000-0  10854-4 0  9998
2 22825  98.9160 326.6972 0007516 236.3951 123.6514 14.30072317365461
ITAMSAT
1 22826U 93061D   19333.88432292 -.00000015 +00000-0 +11986-4 0  9992
2 22826 098.9100 326.3442 0008156 225.0796 134.9724 14.30406669365377
RADIO ROSTO
1 23439U 94085A   19333.94811689 -.00000020 +00000-0 +63368-3 0  9994
2 23439 064.8152 210.4997 0145672 081.0458 280.6923 11.27568955026414
JAS 2
1 24278U 96046B   19333.85405082 -.00000010 +00000-0 +25308-4 0  9993
2 24278 098.5620 105.1963 0350486 174.3299 186.1973 13.53094744149752
TECHSAT 1B
1 25397U 98043D   19333.86557565 -.00000014 +00000-0 +13226-4 0  9990
2 25397 098.7061 272.1304 0000360 332.2093 027.9066 14.23675106111018
ISS (ZARYA)
1 25544U 98067A   19334.55159274  .00003499  00000-0  69102-4 0  9995
2 25544  51.6454 256.4942 0006631 343.4132 191.9842 15.50070110201068
PCSAT
1 26931U 01043C   19334.42764467 -.00000039  00000-0  16665-4 0  9990
2 26931  67.0511 298.5756 0007328 265.0334  94.9931 14.30560242948539
SAUDISAT 1C
1 27607U 02058C   19334.16967545 -.00000039  00000-0  15359-4 0  9990
2 27607  64.5553 266.7193 0071142 224.2525 135.2876 14.75592088911308
CUTE-1
1 27844U 03031E   19333.71768733 +.00000040 +00000-0 +37656-4 0  9998
2 27844 098.6839 339.4798 0008819 277.3922 082.6253 14.22208123851567
CUBESAT XI 4
1 27848U 03031J   19333.89744189 +.00000028 +00000-0 +32646-4 0  9990
2 27848 098.6913 340.1887 0008737 290.0671 069.9566 14.21799341851442
MOZHAYETS 4
1 27939U 03042A   19334.38140146  .00000037  00000-0  15349-4 0  9992
2 27939  98.0635 107.2250 0011700 265.6007  94.3864 14.66820643864681
CUBESAT XI 5
1 28895U 05043F   19333.84927212 +.00000139 +00000-0 +35609-4 0  9998
2 28895 097.9822 111.1932 0016659 189.3084 170.7812 14.63715823751266
CUTE-1.7+APD II
1 32785U 08021C   19333.86230743  .00000197  00000-0  26859-4 0  9999
2 32785  97.5585 325.9134 0014566  79.7549 280.5310 14.88381513628104
DELFI C3
1 32789U 08021G   19333.87762731 +.00001465 +00000-0 +10099-3 0  9998
2 32789 097.4452 018.4408 0010618 284.3887 075.6162 15.07290414631597
SEEDS
1 32791U 08021J   19334.00587408  .00000368  00000-0  42628-4 0  9998
2 32791  97.5323 332.1561 0014573  54.5040 305.7536 14.90921398628597
YUBELEINY
1 32953U 08025A   19334.47554251  .00000021  00000-0  75656-4 0  9996
2 32953  82.5070  42.2821 0020285 129.3633 230.9247 12.43092466522787
PRISM (HITOMI)
1 33493U 09002B   19334.52308737  .00000219  00000-0  24711-4 0  9999
2 33493  98.1278 261.7618 0015335   1.6826 358.4443 14.96821480589804
KKS-1 (KISEKI)
1 33499U 09002H   19333.85747672 +.00000094 +00000-0 +21889-4 0  9999
2 33499 098.3350 177.7068 0010079 049.1195 311.0885 14.75483748583003
SWISSCUBE
1 35932U 09051B   19333.73788338  .00000129  00000-0  40122-4 0  9998
2 35932  98.5995 144.6736 0008059  29.9399 330.2257 14.56334631540651
BEESAT
1 35933U 09051C   19333.73114477 +.00000092 +00000-0 +31862-4 0  9996
2 35933 098.6009 146.4889 0006499 043.9818 316.1895 14.56417386540689
ITUPSAT 1
1 35935U 09051E   19334.43367227  .00000084  00000-0  30568-4 0  9992
2 35935  98.6117 147.4375 0008734  37.9423 322.2387 14.55571056540601
XIWANG-1 (HOPE-1)
1 36122U 09072B   19334.13370253 -.00000024  00000-0  48037-4 0  9999
2 36122 100.0804 328.8268 0007081 329.3032  30.7659 13.16352375478515
TISAT 1
1 36799U 10035E   19334.08508456  .00000209  00000-0  27223-4 0  9990
2 36799  98.1742 131.9190 0010995 266.3558  93.6401 14.91214829509266
JUGNU
1 37839U 11058B   19333.91054225 +.00000310 +00000-0 +23672-4 0  9990
2 37839 019.9621 058.9199 0018981 338.0267 178.7683 14.12665774420398
SRMSAT
1 37841U 11058D   19333.84094924  .00000290  00000-0  13865-4 0  9995
2 37841  19.9709 119.5143 0011763 199.7896 312.3917 14.10644376419906
M-CUBED/EXP-1 PRIME
1 37855U 11061F   19333.87765192 +.00001618 +00000-0 +87961-4 0  9992
2 37855 101.7242 313.8372 0172381 310.0398 048.5798 15.05838184441014
HORYU 2
1 38340U 12025D   19334.13328433  .00000166  00000-0  32213-4 0  9993
2 38340  98.3100  17.4942 0010639 325.1551  34.8959 14.75781154405414
STRAND 1
1 39090U 13009E   19334.46913318  .00000037  00000-0  28048-4 0  9995
2 39090  98.4703 177.5406 0009549 153.1600 207.0082 14.35107549354029
SOMP
1 39134U 13015E   19333.87659820  .00000844  00000-0  47224-4 0  9993
2 39134  64.8624 208.3736 0037804 276.8942  82.7885 15.20539247365551
BEESAT 3
1 39135U 13015F   19333.89562799 +.00000765 +00000-0 +46961-4 0  9993
2 39135 064.8666 228.9444 0041360 280.3122 079.3342 15.17764766364779
BEESAT 2
1 39136U 13015G   19333.86358950  .00000912  00000-0  55283-4 0  9994
2 39136  64.8693 233.3552 0030499 285.6718  74.1043 15.17181572365073
CUBEBUG 1
1 39153U 13018D   19334.52698367  .00000205  00000-0  33604-4 0  9997
2 39153  97.9820  71.7615 0017436  28.7565 331.4604 14.80632069356205
ZACUBE
1 39417U 13066B   19334.00309710  .00000177  00000-0  28675-4 0  9997
2 39417  97.5614 338.2638 0058067 214.0677 145.6804 14.81185195325364
TRITON 1
1 39427U 13066M   19334.48769892  .00000196  00000-0  39274-4 0  9999
2 39427  97.6984 301.8735 0113801 358.6347   1.4531 14.67913369322513
GOMX 1
1 39430U 13066Q   19334.39205410  .00000214  00000-0  47253-4 0  9991
2 39430  97.7674 280.2682 0152305  94.8649 266.9955 14.59315687320629
HUMSAT D
1 39433U 13066T   19333.76393848 +.00000196 +00000-0 +24336-4 0  9993
2 39433 097.5339 014.3948 0032198 112.3553 248.1085 14.92313947326363
CUBEBUG 2
1 39440U 13066AA  19333.88848254 +.00000169 +00000-0 +30665-4 0  9992
2 39440 097.6132 322.7247 0078731 271.6718 087.5476 14.75923940322991
FUNCUBE 1
1 39444U 13066AE  19334.31738555  .00000216  00000-0  32830-4 0  9996
2 39444  97.5579 340.6557 0057376 206.0390 153.7935 14.82018823324319
UWE-3
1 39446U 13066AG  19333.88216213 +.00000175 +00000-0 +29991-4 0  9999
2 39446 097.5867 329.8843 0068649 243.7627 115.6518 14.78457893322933
SPROUT
1 39770U 14029E   19334.51470788  .00000536  00000-0  65160-4 0  9998
2 39770  97.8912  76.8160 0007889 264.8182  95.2133 14.87521592299338
UNISAT 6
1 40012U 14033C   19333.88614075  .00000156  00000-0  30716-4 0  9999
2 40012  97.7328 193.2185 0057032 288.5708  70.9311 14.74038616292878
DUCHIFAT 1
1 40021U 14033M   19334.06676154  .00000429  00000-0  49512-4 0  9993
2 40021  97.9307 259.2377 0011733 224.4405 135.5872 14.90749744296035
QB50P1
1 40025U 14033R   19333.87301003 +.00000270 +00000-0 +34655-4 0  9999
2 40025 097.9084 253.2879 0011188 236.3824 123.6326 14.89029082295241
CHUBUSAT 1
1 40300U 14070C   19334.25972600  .00000704  00000-0  33456-4 0  9996
2 40300  97.3142  44.1580 0019488 193.0117 208.5725 15.22270312281059
NUDT-PHONESAT
1 40900U 15049B   19334.49814488  .00002056  00000-0  89449-4 0  9999
2 40900  97.4352 342.2565 0011962 333.8683 178.7036 15.23339972232749
ZDPS 2A
1 40901U 15049C   19334.50217951  .00000824  00000-0  43841-4 0  9991
2 40901  97.4611 337.9788 0013383 356.8822 154.1780 15.17955868232234
ZDPS 2B
1 40902U 15049D   19334.53700494  .00001331  00000-0  68954-4 0  9990
2 40902  97.4568 335.3792 0013283 354.1980 119.7458 15.17854424232211
XW-2A
1 40903U 15049E   19334.53682742  .00001693  00000-0  41170-4 0  9998
2 40903  97.3173  18.0874 0011647 268.4647 197.6637 15.42374593235655
KAITUO 1A
1 40904U 15049F   19334.55492392  .00000624  00000-0  36346-4 0  9993
2 40904  97.4714 333.7978 0014771   3.1682 149.0227 15.15521690231962
OBJECT G
1 40905U 15049G   19334.54869063  .00000422  00000-0  26499-4 0  9990
2 40905  97.4769 331.1747 0015638 358.3867 117.1001 15.14403534231828
XW-2C
1 40906U 15049H   19334.45697920  .00000590  00000-0  34274-4 0  9998
2 40906  97.4714 333.8637 0014559 354.1128 166.8014 15.15843095231951
XW-2D
1 40907U 15049J   19334.53734020  .00000879  00000-0  49108-4 0  9993
2 40907  97.4699 333.6277 0013915 351.8082 124.3957 15.16048494231989
LILACSAT 2
1 40908U 15049K   19334.58133185  .00000274  00000-0  18746-4 0  9997
2 40908  97.4838 332.2989 0015779 358.7344 117.9384 15.13903253231754
XW-2F
1 40910U 15049M   19334.53817712  .00001166  00000-0  61299-4 0  9992
2 40910  97.4647 335.8859 0014260 343.1355 135.7136 15.17567913232010
XW-2B
1 40911U 15049N   19334.57910046  .00000548  00000-0  31973-4 0  9990
2 40911  97.4714 334.3457 0013713 352.0785 131.8084 15.15975040231887
KAITUO 1B
1 40912U 15049P   19334.58031775  .00001063  00000-0  52592-4 0  9998
2 40912  97.4498 339.8279 0013804 322.1097 155.6785 15.19912806232354
TIANWANG 1C (TW-1C)
1 40926U 15051B   19334.39432796  .00012117  00000-0  15501-3 0  9993
2 40926  97.1145  20.5174 0008772 113.5066 257.3340 15.59314221235798
